SCP
0 0 0 0 0 0 0 0 0 0 0 0 1 2 2 2 3 5 7 9 7 4 4 5 5 6 7 7 6 6 5 6 5 4 4 5 5 6 6 6 5 5 4 4
0 0 0 0 0 0 0 0 0 0 0 0 1 1 2 2 4 5 6 7 6 4 4 5 5 6 6 6 6 5 5 6 5 5 5 5 6 6 6 6 5 4 4 4
0 0 0 0 0 0 0 0 0 0 0 0 1 1 2 3 4 4 5 5 5 4 4 4 5 5 5 5 5 6 6 6 6 6 6 6 6 6 6 5 5 4 4 4
0 0 0 0 0 0 0 0 0 0 0 0 0 1 2 4 4 4 4 4 4 4 3 3 3 3 4 4 5 6 6 6 6 5 6 6 6 6 6 6 5 4 4 4
0 0 0 0 0 0 0 0 0 0 0 0 0 1 2 4 4 4 4 4 4 4 3 3 3 3 3 3 4 4 5 5 5 5 6 6 6 6 6 6 6 5 4 4
0 0 0 0 0 0 0 0 0 0 0 0 0 1 2 3 3 3 4 5 5 4 3 3 2 2 2 2 3 3 4 4 4 4 5 5 5 5 5 5 5 5 5 5
0 0 0 0 0 0 0 0 0 0 0 0 0 1 2 3 3 4 5 6 5 3 2 2 2 2 2 2 3 3 3 3 3 3 4 4 4 4 4 4 4 4 4 4
0 0 0 0 0 0 0 0 0 0 0 0 1 1 2 3 4 5 7 7 5 3 2 1 1 1 2 2 2 2 2 2 2 2 3 3 3 3 3 3 3 3 2 2
0 0 0 0 0 0 0 0 0 0 0 0 1 1 2 3 4 5 6 5 3 2 2 1 1 1 1 1 1 1 1 1 1 1 1 2 2 2 2 2 2 2 1 1
0 0 0 0 0 0 0 0 0 0 0 0 0 1 2 3 4 4 5 4 3 2 1 1 1 1 1 1 1 1 1 0 0 0 0 1 1 2 2 2 1 1 1 1
1 0 0 0 0 0 0 0 0 0 0 0 0 1 1 2 3 3 4 3 2 2 1 1 1 0 0 0 0 0 0 0 0 0 0 0 1 1 1 1 1 1 0 0
1 1 1 0 0 0 0 0 0 0 0 0 0 1 1 2 2 3 3 3 2 1 1 1 0 0 0 0 0 0 0 0 0 0 0 0 0 0 1 1 0 0 0 0
1 1 1 0 0 0 0 0 0 0 0 0 0 1 1 2 3 3 3 3 2 1 1 1 0 0 0 0 0 0 0 0 0 0 0 0 0 0 0 0 0 0 0 0
1 1 1 0 0 0 0 0 0 0 0 0 0 1 2 2 3 3 3 2 2 1 1 0 0 0 0 0 0 0 0 0 0 0 0 0 0 0 0 0 0 0 0 0
1 1 1 0 0 0 0 0 0 0 0 0 1 1 2 2 2 3 3 2 1 1 1 0 0 0 0 0 0 0 0 0 0 0 0 0 0 0 0 0 0 0 0 0
1 0 0 0 0 0 0 0 0 0 1 1 1 1 2 2 2 3 3 2 1 1 1 0 0 0 0 0 0 0 0 0 0 0 0 0 0 0 0 0 0 0 0 0
0 0 0 0 0 0 0 0 0 1 1 1 1 2 2 2 2 3 3 2 1 1 1 0 0 0 0 0 0 0 0 0 0 0 0 0 0 0 0 0 0 0 0 0
0 0 0 0 0 0 0 0 0 1 1 1 2 2 3 3 3 2 2 2 2 1 1 1 0 0 0 0 0 0 0 0 0 0 0 0 0 0 0 0 0 0 0 0
0 0 0 0 0 0 0 0 0 1 1 1 2 2 2 3 3 2 2 2 2 1 1 1 1 0 0 0 0 0 0 0 0 0 0 0 0 0 0 0 0 0 0 0
0 0 0 0 0 0 0 0 0 0 1 1 2 2 2 2 2 2 2 2 2 1 1 1 1 0 0 0 0 0 0 0 0 0 0 0 0 0 0 0 0 0 0 0
0 0 0 0 0 0 0 0 0 1 1 2 2 2 3 3 2 2 2 2 1 1 1 1 1 0 0 0 0 0 0 0 0 0 0 0 0 0 0 0 0 0 0 0
0 0 0 0 0 0 0 1 1 1 1 2 3 3 3 2 2 2 2 1 1 1 1 0 0 0 0 0 0 0 0 0 0 0 0 0 0 0 0 0 0 0 0 0
0 0 0 0 0 0 1 1 1 1 1 2 3 3 2 2 1 1 1 1 0 0 0 0 0 0 0 0 0 0 0 0 0 0 0 0 0 0 0 0 0 0 0 0
0 0 0 0 0 0 0 0 1 1 1 1 2 2 1 1 1 1 1 0 0 0 0 0 0 0 0 1 0 0 0 0 0 0 0 0 0 0 0 0 0 0 0 0
0 0 0 0 0 0 0 0 0 1 1 1 1 1 1 1 1 1 0 0 0 0 0 0 0 0 0 0 0 0 0 0 0 0 0 0 0 0 0 0 0 0 0 0
0 0 0 0 0 0 0 0 0 1 1 1 1 1 1 1 1 0 0 0 0 0 0 0 0 0 0 0 0 0 0 0 0 0 0 0 0 0 0 0 0 0 0 0
Wind_Speed
11 12 12 13 15 14 12 13 10 9 11 12 11 10 11 11 9 10 11 12 12 13 12 10 9 10 10 9 9 8 7 6 4 2 1 1 1 1 2 2 3 3 3 3
11 14 15 13 11 11 13 10 7 6 7 8 8 10 10 10 9 9 11 11 13 13 11 10 10 10 10 9 9 8 8 6 5 3 2 1 2 2 2 2 3 3 3 3
13 10 10 8 7 9 10 9 6 7 7 8 8 10 10 10 8 8 11 11 12 12 11 10 9 9 10 9 9 8 8 8 7 5 3 2 1 1 2 2 2 3 3 3
12 10 7 7 9 10 8 9 8 8 9 8 11 9 9 10 9 9 10 11 12 11 11 10 9 9 9 8 8 9 8 8 7 6 5 4 3 3 3 2 2 2 3 4
9 7 8 9 10 9 8 8 10 9 7 8 9 9 7 9 11 11 11 12 12 11 11 10 10 9 9 9 8 8 8 9 8 7 6 5 4 3 3 3 3 3 4 5
10 7 8 9 9 8 8 10 9 9 8 12 10 10 7 10 12 11 11 13 13 12 11 11 10 9 9 9 9 8 9 9 9 9 8 7 6 5 5 5 4 4 4 5
10 10 9 8 9 8 9 7 4 5 7 8 8 6 3 8 11 15 15 15 14 12 11 10 10 9 9 9 9 9 9 9 9 9 9 8 7 6 7 5 5 5 4 5
7 8 9 8 8 7 8 9 5 4 6 6 6 3 4 7 11 16 17 16 14 12 11 10 10 9 9 9 9 8 9 9 9 9 8 8 8 5 5 6 5 5 4 5
4 4 5 7 7 8 8 8 6 6 9 5 3 1 6 11 15 17 18 16 14 13 12 11 10 10 9 9 9 9 9 9 9 8 8 8 8 7 6 6 5 5 5 5
5 5 6 8 8 10 9 7 5 5 4 5 4 3 3 9 14 17 17 15 14 13 12 11 10 9 9 9 9 9 9 9 8 8 7 7 7 7 7 6 7 6 6 6
6 6 6 7 7 6 7 7 7 6 3 4 2 1 2 5 9 13 15 15 15 14 13 11 9 9 9 9 9 8 8 8 8 8 7 7 7 7 7 6 7 6 6 6
5 5 6 6 6 6 6 6 6 5 6 5 3 1 1 3 7 12 14 15 14 13 12 11 10 9 9 9 8 8 7 7 7 6 6 6 6 6 7 7 7 6 7 6
5 3 5 5 3 4 5 7 5 4 5 4 4 1 2 3 5 11 15 15 14 13 12 11 10 9 8 8 8 7 7 7 7 7 7 7 7 7 7 7 6 7 7 7
3 4 5 5 4 4 7 8 6 5 4 5 4 2 5 6 8 11 14 15 14 12 11 10 10 9 8 7 7 7 7 6 6 6 7 7 6 6 6 6 6 6 6 7
2 6 6 6 8 7 8 7 7 6 6 6 4 2 5 7 9 13 13 14 13 12 11 10 9 8 8 7 7 7 6 6 6 6 6 6 6 6 6 6 6 6 7 8
1 5 7 9 10 8 7 7 6 5 5 6 3 5 8 9 9 13 14 13 12 12 11 10 10 9 8 7 7 7 6 5 5 6 6 6 5 5 5 5 6 6 7 7
4 5 8 7 8 6 5 5 4 4 6 5 4 4 8 8 8 10 13 13 12 12 11 11 9 8 8 7 7 7 6 5 5 6 5 5 5 5 5 6 6 6 6 7
5 5 5 7 7 5 0 2 3 4 7 8 8 9 9 9 9 8 9 11 12 12 11 10 9 9 7 7 6 6 6 5 6 5 5 5 5 6 5 6 6 6 5 6
5 5 5 4 4 2 4 7 6 3 7 8 8 9 10 11 10 7 8 10 11 12 11 10 9 9 8 7 7 6 6 5 5 5 5 5 5 6 6 6 6 5 4 5
6 5 5 6 5 1 2 6 7 2 4 6 6 6 8 7 3 6 8 11 12 12 11 10 10 9 8 7 6 6 6 6 6 6 6 5 5 6 6 5 5 4 4 5
3 4 6 7 4 2 8 10 7 3 3 5 4 5 6 4 6 11 12 12 12 12 11 10 9 8 7 6 6 6 6 6 5 5 6 6 5 5 5 4 3 3 4 5
2 2 3 3 2 2 11 9 7 5 4 5 6 8 10 13 14 14 14 13 13 12 11 10 9 8 7 7 7 7 6 6 5 5 5 5 4 4 6 4 3 3 3 3
3 3 3 3 2 3 5 6 6 6 5 6 8 10 12 13 14 14 13 12 12 11 10 9 9 9 7 6 7 8 6 6 5 5 5 5 5 5 3 3 2 1 1 1
2 3 1 1 3 4 6 7 8 7 6 7 9 10 12 14 14 14 12 11 11 10 10 9 9 9 8 7 7 7 7 6 5 5 4 4 5 4 4 3 3 4 4 3
5 3 2 2 3 4 7 7 6 6 7 8 9 10 12 14 14 13 11 11 10 9 9 8 9 9 9 8 7 7 7 6 5 5 4 4 5 5 5 6 5 5 5 5
3 3 2 2 4 3 4 5 5 5 6 7 9 10 12 13 13 13 11 10 10 10 9 9 9 10 10 9 8 8 7 6 5 4 4 4 5 5 5 6 5 9 6 7
Wind_Direction
209 227 232 228 227 240 258 247 226 192 177 203 204 178 170 179 178 161 138 124 112 101 94 87 78 68 65 59 57 55 54 44 35 40 29 62 73 65 61 61 55 36 18 2
210 228 242 240 229 250 268 258 228 179 173 208 201 183 172 171 173 152 135 126 119 113 100 88 78 68 62 56 55 53 46 38 30 24 13 39 55 59 68 54 53 33 20 2
226 231 230 246 241 246 259 264 236 188 188 218 223 201 178 173 166 141 131 125 119 114 106 96 82 71 63 57 52 50 43 36 29 16 17 42 62 58 55 53 49 29 22 25
232 229 215 231 242 239 246 261 261 233 208 219 225 221 190 175 164 155 141 129 120 114 109 100 89 75 66 62 59 53 47 40 30 23 29 28 43 42 34 32 38 38 34 28
235 224 215 228 239 233 246 248 249 247 237 247 231 238 199 171 181 172 154 140 128 121 113 102 91 82 71 62 59 55 50 44 36 33 33 34 45 43 34 30 30 30 39 33
256 235 226 230 239 237 244 244 245 248 243 243 245 242 197 181 181 165 158 142 131 124 114 107 101 91 78 67 61 57 53 46 40 38 37 38 42 41 38 31 26 27 37 35
238 233 228 237 237 231 245 246 247 255 253 256 284 260 162 168 166 163 158 143 132 126 121 116 105 91 80 68 61 57 55 50 42 42 42 39 36 43 41 32 28 27 34 37
242 234 225 223 228 232 241 242 233 244 260 258 276 271 121 146 148 145 143 135 133 128 120 110 99 91 83 73 64 60 58 54 48 46 45 40 34 39 40 35 38 38 36 38
281 250 239 235 225 232 238 251 246 253 271 279 258 110 120 132 125 128 133 136 136 126 119 110 101 92 84 76 67 63 62 58 51 49 49 48 41 40 42 42 43 42 35 38
300 278 245 237 230 242 256 258 267 264 278 273 249 213 188 150 143 141 143 142 133 126 118 110 103 96 89 82 76 69 65 63 57 54 47 49 45 44 44 45 45 40 37 38
277 271 258 254 241 246 251 257 274 289 284 291 299 275 168 187 169 154 149 143 136 131 124 118 111 103 98 90 81 74 70 66 61 59 56 50 47 47 50 50 48 44 42 43
302 291 271 263 289 295 274 265 273 288 303 307 313 87 73 156 172 149 141 135 130 126 122 118 111 103 96 90 86 80 73 72 69 67 62 56 53 53 53 53 51 49 44 45
327 306 276 259 278 300 291 280 279 288 294 298 308 129 75 75 115 126 134 131 129 126 122 116 109 103 98 93 89 85 76 70 69 70 67 60 56 56 53 49 49 53 51 47
287 289 278 268 289 292 279 278 287 290 290 298 297 149 147 132 123 124 130 130 130 127 125 121 116 108 104 100 95 90 81 76 74 73 72 66 60 60 55 50 49 53 55 54
277 282 273 260 254 250 266 276 282 290 295 297 333 97 137 136 136 137 132 132 132 133 131 126 122 116 112 107 102 95 90 82 80 81 76 73 70 65 59 54 50 50 55 61
286 284 291 278 257 252 263 270 275 286 305 313 352 64 93 112 121 131 134 138 142 142 137 130 126 123 119 114 109 103 96 89 85 84 84 83 76 71 64 61 57 56 59 60
292 293 295 281 278 280 280 317 330 345 3 1 18 82 106 111 120 137 145 149 151 146 140 135 130 123 121 118 115 114 108 103 93 88 88 87 81 76 68 69 64 59 62 65
269 290 293 292 297 273 11 354 24 59 44 52 76 96 98 100 103 114 135 143 143 141 138 133 128 123 122 117 114 114 111 106 101 96 91 91 89 86 76 70 70 65 64 69
234 251 275 279 276 281 5 355 354 44 66 58 85 97 104 110 106 96 115 132 136 136 133 130 127 126 123 120 122 121 116 109 101 96 91 86 90 92 86 79 74 69 70 75
214 214 247 274 277 276 6 339 333 11 91 49 86 112 123 139 128 118 121 123 123 125 126 127 128 128 128 129 129 125 119 112 103 99 95 92 93 92 88 84 83 81 82 82
233 226 242 261 271 54 354 349 344 14 54 41 67 105 120 103 88 121 124 120 121 123 126 129 130 130 131 134 131 124 117 110 108 104 102 101 99 101 94 85 80 82 87 87
311 298 290 293 292 13 1 15 36 49 51 64 84 96 98 101 113 123 126 126 128 130 133 134 132 130 130 132 131 124 121 120 116 111 109 110 114 112 106 100 93 97 109 116
15 26 8 19 70 81 47 55 60 58 62 78 93 104 115 120 125 127 128 131 134 135 137 138 134 129 128 129 130 128 127 124 119 118 115 112 107 96 105 117 125 136 149 145
32 45 62 100 101 81 69 64 57 56 66 90 102 113 121 124 128 130 132 135 138 139 138 138 137 133 129 129 131 129 124 120 119 118 114 112 113 108 84 59 54 51 34 28
325 337 14 62 87 79 67 63 64 70 84 99 107 115 123 129 132 134 135 138 139 136 136 138 139 137 135 138 135 130 129 131 133 132 130 128 115 105 90 73 51 59 53 46
3 9 1 35 50 54 65 65 70 83 95 103 114 118 124 131 134 136 137 138 138 139 139 140 140 139 140 142 140 137 138 141 145 148 152 144 137 138 131 117 93 58 73 70